Weather History for Crossville, TN

Change the Weather History Date:

Friday, January 17, 2014

  Actual Average Record
Temperature  
Mean Temperature 26 °F 36 °F  
Max Temperature 34 °F 44 °F 65 °F (1974)
Min Temperature 19 °F 27 °F -13 °F (1982)
Degree Days  
Heating Degree Days 38    
Month to date heating degree days  
Since 1 July heating degree days  
Cooling Degree Days 0    
Month to date cooling degree days  
Year to date cooling degree days  
Moisture  
Dew Point 21 °F    
Average Humidity 77    
Maximum Humidity 92    
Minimum Humidity 51    
Precipitation  
Precipitation 0.00 in 0.15 in 1.74 in (2006)
Month to date precipitation 2.62  
Year to date precipitation 2.62  
Sea Level Pressure  
Sea Level Pressure 29.94 in    
Wind  
Wind Speed 7 mph (West)    
Max Wind Speed 14 mph    
Max Gust Speed 24 mph    
Visibility 6 miles    
Events Snow    
T = Trace of Precipitation, MM = Missing Value Source: NWS Daily Summary

Daily Weather History Graph

Daily Weather History Graph

Search for Another Location

Airport:

Trip Planner

Search our weather history database for the weather conditions in past years. The results will help you decide how hot, cold, wet, or windy it might be!

Date:

Astronomy

Jan. 17, 2014 Rise Set
Actual Time 6:49 AM CST 4:51 PM CST
Civil Twilight 6:21 AM CST 5:19 PM CST
Nautical Twilight 5:50 AM CST 5:50 PM CST
Astronomical Twilight 5:19 AM CST 6:21 PM CST
Moon 6:32 PM CST (1/17) 7:21 AM CST (1/17)
Length of Visible Light 10h 57m
Length of Day
10h 02m
Full, 98% of the Moon is Illuminated
Jan 17
Full
Jan 23
Last Quarter
Jan 30
New
Feb 6
First Quarter
Feb 14
Full

Hourly Weather History & Observations

Time (CST) Temp. Windchill Dew Point Humidity Pressure Visibility Wind Dir Wind Speed Gust Speed Precip Events Conditions
12:02 AM 33.8 °F 28.6 °F 30.2 °F 87% 29.88 in 1.5 mi SSW 5.8 mph - 0.00 in Snow Light Snow
12:11 AM 33.8 °F 29.6 °F 30.2 °F 87% 29.87 in 2.5 mi SSW 4.6 mph - 0.00 in Snow Light Snow
12:17 AM 33.8 °F 29.6 °F 30.2 °F 87% 29.87 in 3.0 mi Variable 4.6 mph - 0.00 in Snow Light Snow
12:26 AM 33.8 °F 29.6 °F 30.2 °F 87% 29.86 in 4.0 mi Variable 4.6 mph - 0.00 in Snow Light Snow
12:45 AM 33.8 °F 29.6 °F 30.2 °F 87% 29.86 in 10.0 mi Variable 4.6 mph - 0.00 in   Mostly Cloudy
12:53 AM 33.1 °F 30.0 °F 30.0 °F 89% 29.89 in 10.0 mi Variable 3.5 mph - 0.00 in   Mostly Cloudy
1:24 AM 33.8 °F 29.6 °F 30.2 °F 87% 29.85 in 10.0 mi South 4.6 mph - N/A   Mostly Cloudy
1:53 AM 32.0 °F - 30.0 °F 92% 29.89 in 10.0 mi Calm Calm - N/A   Mostly Cloudy
2:53 AM 30.0 °F 26.5 °F 27.0 °F 88% 29.87 in 10.0 mi South 3.5 mph - N/A   Clear
3:53 AM 30.0 °F 25.2 °F 26.1 °F 85% 29.86 in 10.0 mi South 4.6 mph - N/A   Clear
4:53 AM 30.0 °F 25.2 °F 24.1 °F 79% 29.87 in 10.0 mi South 4.6 mph - N/A   Mostly Cloudy
5:53 AM 30.9 °F 26.2 °F 24.1 °F 76% 29.87 in 10.0 mi South 4.6 mph - N/A   Clear
6:53 AM 32.0 °F 27.5 °F 24.1 °F 73% 29.87 in 10.0 mi Variable 4.6 mph - N/A   Partly Cloudy
7:53 AM 34.0 °F 28.8 °F 26.1 °F 73% 29.89 in 10.0 mi Variable 5.8 mph - N/A   Overcast
8:51 AM 33.8 °F 27.0 °F 26.6 °F 75% 29.89 in 4.0 mi West 8.1 mph 19.6 mph 0.00 in Snow Light Snow
8:53 AM 33.1 °F 23.9 °F 27.0 °F 78% 29.92 in 4.0 mi West 12.7 mph 20.7 mph 0.00 in Snow Light Snow
9:07 AM 33.8 °F 26.4 °F 26.6 °F 75% 29.90 in 2.5 mi WSW 9.2 mph 19.6 mph 0.00 in Snow Light Snow
9:21 AM 33.8 °F 24.8 °F 26.6 °F 75% 29.90 in 4.0 mi West 12.7 mph 19.6 mph 0.00 in Snow Light Snow
9:53 AM 33.1 °F 23.9 °F 23.0 °F 66% 29.94 in 10.0 mi WSW 12.7 mph 21.9 mph 0.00 in   Overcast
10:13 AM 33.8 °F 25.8 °F 23.0 °F 65% 29.90 in 9.0 mi West 10.4 mph 19.6 mph 0.00 in   Overcast
10:53 AM 33.1 °F 23.4 °F 19.0 °F 56% 29.92 in 10.0 mi West 13.8 mph 24.2 mph 0.00 in   Mostly Cloudy
11:53 AM 33.1 °F 23.9 °F 23.0 °F 66% 29.91 in 10.0 mi West 12.7 mph 20.7 mph N/A   Overcast
12:26 PM 28.4 °F 18.5 °F 23.0 °F 80% 29.88 in 1.8 mi West 11.5 mph 18.4 mph 0.00 in Snow Light Snow
12:35 PM 28.4 °F 19.1 °F 21.2 °F 74% 29.88 in 1.5 mi West 10.4 mph - 0.00 in Snow Light Snow
12:44 PM 28.4 °F 19.7 °F 21.2 °F 74% 29.89 in 3.0 mi West 9.2 mph - 0.00 in Snow Light Snow
12:53 PM 28.9 °F 19.8 °F 21.0 °F 72% 29.93 in 8.0 mi West 10.4 mph - 0.00 in   Overcast
1:09 PM 28.4 °F 19.7 °F 21.2 °F 74% 29.89 in 1.8 mi West 9.2 mph - 0.00 in Snow Light Snow
1:47 PM 28.4 °F 21.2 °F 21.2 °F 74% 29.90 in 3.0 mi Variable 6.9 mph - 0.00 in Snow Light Snow
1:53 PM 28.0 °F 18.6 °F 21.9 °F 78% 29.94 in 3.0 mi West 10.4 mph - 0.00 in Snow Light Snow
1:58 PM 28.4 °F 19.7 °F 21.2 °F 74% 29.90 in 1.8 mi West 9.2 mph - 0.00 in Snow Light Snow
2:06 PM 28.4 °F 19.7 °F 23.0 °F 80% 29.91 in 0.8 mi WNW 9.2 mph - 0.00 in Snow Light Snow
2:21 PM 28.4 °F 20.4 °F 23.0 °F 80% 29.91 in 2.0 mi West 8.1 mph - 0.00 in Snow Light Snow
2:29 PM 28.4 °F 21.2 °F 21.2 °F 74% 29.91 in 8.0 mi West 6.9 mph - 0.00 in Snow Light Snow
2:36 PM 28.4 °F 19.1 °F 19.4 °F 69% 29.91 in 10.0 mi WSW 10.4 mph 17.3 mph 0.00 in   Mostly Cloudy
2:53 PM 30.0 °F 21.1 °F 18.0 °F 61% 29.95 in 10.0 mi West 10.4 mph 17.3 mph 0.00 in   Overcast
3:53 PM 28.9 °F 21.1 °F 12.9 °F 51% 29.99 in 10.0 mi West 8.1 mph 24.2 mph N/A   Overcast
4:41 PM 24.8 °F 14.0 °F 17.6 °F 74% 29.98 in 2.0 mi NW 11.5 mph 23.0 mph 0.00 in Snow Light Snow
4:49 PM 24.8 °F 14.6 °F 17.6 °F 74% 29.99 in 1.2 mi NW 10.4 mph 18.4 mph 0.00 in Snow Light Snow
4:53 PM 24.1 °F 13.1 °F 19.0 °F 81% 30.04 in 1.0 mi WNW 11.5 mph 18.4 mph 0.00 in Snow Light Snow
5:05 PM 23.0 °F 13.1 °F 17.6 °F 80% 30.00 in 3.0 mi NW 9.2 mph - 0.00 in Snow Light Snow
5:15 PM 23.0 °F 11.7 °F 17.6 °F 80% 30.00 in 5.0 mi WNW 11.5 mph 17.3 mph 0.00 in Snow Light Snow
5:27 PM 23.0 °F 12.4 °F 17.6 °F 80% 30.01 in 2.5 mi WNW 10.4 mph - 0.00 in Snow Light Snow
5:39 PM 21.2 °F 9.5 °F 17.6 °F 86% 30.01 in 1.5 mi NW 11.5 mph 20.7 mph 0.00 in Snow Light Snow
5:51 PM 21.2 °F 11.7 °F 17.6 °F 86% 30.02 in 3.0 mi WNW 8.1 mph - 0.00 in Snow Light Snow
5:53 PM 21.9 °F 11.7 °F 17.1 °F 82% 30.07 in 3.0 mi WNW 9.2 mph - 0.00 in Snow Light Snow
6:22 PM 21.2 °F 11.7 °F 17.6 °F 86% 30.03 in 2.5 mi WNW 8.1 mph 18.4 mph 0.00 in Snow Light Snow
6:33 PM 21.2 °F 11.7 °F 15.8 °F 80% 30.03 in 4.0 mi WNW 8.1 mph - 0.00 in Snow Light Snow
6:53 PM 21.0 °F 13.4 °F 16.0 °F 81% 30.09 in 10.0 mi NW 5.8 mph - 0.00 in   Overcast
7:01 PM 21.2 °F 12.6 °F 15.8 °F 80% 30.04 in 10.0 mi WNW 6.9 mph 17.3 mph N/A   Overcast
7:53 PM 21.0 °F 10.6 °F 12.9 °F 71% 30.09 in 10.0 mi WNW 9.2 mph - N/A   Overcast
8:53 PM 19.9 °F 12.1 °F 10.0 °F 65% 30.09 in 10.0 mi West 5.8 mph - N/A   Overcast
9:53 PM 19.9 °F 11.1 °F 10.9 °F 68% 30.09 in 10.0 mi West 6.9 mph - N/A   Overcast
10:53 PM 19.9 °F 14.9 °F 10.9 °F 68% 30.08 in 10.0 mi WNW 3.5 mph - N/A   Overcast
11:53 PM 19.9 °F 11.1 °F 10.0 °F 65% 30.06 in 10.0 mi West 6.9 mph - N/A   Overcast